Location: Unspecified
(0.0000°N, 0.0000°E)
Time: 10:03:02
(UTC+00:00)

XW-2F - Pass Details

Date: 08 December 2017
Orbit: 507 x 528 km, 97.5° (Epoch: 17 January)

Event Time Altitude Azimuth Distance (km) Brightness Sun altitude
Rises 04:56:17 0° 43° (NE) 2,649 ? -12.8°
Reaches altitude 10° 04:59:15 10° 70° (ENE) 1,762 ? -12.1°
Maximum altitude 05:01:15 14° 101° (ESE) 1,532 ? -11.7°
Drops below altitude 10° 05:03:14 10° 133° (SE) 1,762 ? -11.2°
Sets 05:06:12 0° 159° (SSE) 2,649 ? -10.5°
